Weather History for EIDW - January, 2013

Change the Weather History Date:

Thursday, January 31, 2013

  Actual Average Record
Temperature  
Mean Temperature 44 °F -  
Max Temperature 48 °F 46 °F 53 °F (2000)
Min Temperature 39 °F 36 °F 26 °F (2006)
Degree Days  
Heating Degree Days 22    
Moisture  
Dew Point 37 °F    
Average Humidity 75    
Maximum Humidity 93    
Minimum Humidity 61    
Precipitation  
Precipitation 0.12 in 0.06 in - ()
Sea Level Pressure  
Sea Level Pressure 29.64 in    
Wind  
Wind Speed 22 mph ()    
Max Wind Speed 32 mph    
Max Gust Speed 52 mph    
Visibility 7.1 miles    
Events Rain    
Averages and records for this station are not official NWS values.
T = Trace of Precipitation, MM = Missing Value Source: Averaged Metar Reports

Daily Weather History Graph

Daily Weather History Graph

Search for Another Location

Airport or City:

Trip Planner

Search our weather history database for the weather conditions in past years. The results will help you decide how hot, cold, wet, or windy it might be!

Date:

Astronomy

Jan. 31, 2013 Rise Set
Actual Time 8:11 AM GMT 5:06 PM GMT
Civil Twilight 7:33 AM GMT 5:44 PM GMT
Nautical Twilight 6:51 AM GMT 6:26 PM GMT
Astronomical Twilight 6:10 AM GMT 7:07 PM GMT
Moon 10:45 PM GMT (1/31) 9:17 AM GMT (1/31)
Length of Visible Light 10h 11m
Length of Day
8h 55m
Waning Gibbous, 81% of the Moon is Illuminated
Jan 31
Waning Gibbous
Feb 3
Last Quarter
Feb 10
New
Feb 17
First Quarter
Feb 25
Full

Hourly Weather History & Observations

Time (GMT) Temp. Windchill Dew Point Humidity Pressure Visibility Wind Dir Wind Speed Gust Speed Precip Events Conditions
12:00 AM 48 °F - 39 °F 61% 29.65 in 19 mi South 20.1 mph - -   Partly Cloudy
12:00 AM 48.2 °F - 39.2 °F 71% 29.65 in 6.2 mi South 19.6 mph 34.5 mph N/A   Mostly Cloudy
12:30 AM 48.2 °F - 39.2 °F 71% 29.59 in 6.2 mi South 21.9 mph 34.5 mph N/A   Mostly Cloudy
1:00 AM 46.4 °F 36.9 °F 42.8 °F 87% 29.56 in 4.3 mi South 32.2 mph 48.3 mph N/A Rain Rain Showers
1:30 AM 46.4 °F 37.7 °F 41.0 °F 81% 29.53 in 6.2 mi SSW 26.5 mph 39.1 mph N/A Rain Light Rain Showers
2:00 AM 46.4 °F 37.5 °F 39.2 °F 76% 29.53 in 6.2 mi SW 27.6 mph 42.6 mph N/A   Scattered Clouds
2:30 AM 46.4 °F 39.0 °F 37.4 °F 71% 29.50 in 6.2 mi SW 19.6 mph - N/A   Mostly Cloudy
3:00 AM 46.4 °F 38.3 °F 37.4 °F 71% 29.50 in 6.2 mi SW 23.0 mph - N/A   Mostly Cloudy
3:30 AM 46.4 °F 37.9 °F 35.6 °F 66% 29.50 in 6.2 mi SW 25.3 mph - N/A   Mostly Cloudy
4:00 AM 46.4 °F 37.9 °F 35.6 °F 66% 29.50 in 6.2 mi SW 25.3 mph 39.1 mph N/A Rain Light Rain Showers
4:30 AM 44.6 °F 35.1 °F 37.4 °F 76% 29.50 in 6.2 mi WSW 27.6 mph - N/A   Mostly Cloudy
5:00 AM 42.8 °F 33.1 °F 35.6 °F 76% 29.50 in 6.2 mi SW 25.3 mph - N/A   Scattered Clouds
5:30 AM 42.8 °F 32.5 °F 35.6 °F 76% 29.53 in 6.2 mi SW 28.8 mph 42.6 mph N/A   Mostly Cloudy
6:00 AM 43 °F - 35 °F 63% 29.55 in 19 mi SW 29.1 mph - - Rain Light Rain Showers
6:00 AM 42.8 °F 32.3 °F 33.8 °F 70% 29.53 in 6.2 mi SW 29.9 mph - N/A   Mostly Cloudy
6:30 AM 42.8 °F 34.0 °F 35.6 °F 76% 29.53 in 6.2 mi SW 20.7 mph 32.2 mph N/A   Scattered Clouds
7:00 AM 42.8 °F 33.1 °F 35.6 °F 76% 29.56 in 6.2 mi SW 25.3 mph 51.8 mph N/A   Mostly Cloudy
7:30 AM 41.0 °F 29.8 °F 35.6 °F 81% 29.56 in 6.2 mi WSW 29.9 mph 41.4 mph N/A   Mostly Cloudy
8:00 AM 41.0 °F 30.5 °F 35.6 °F 81% 29.59 in 6.2 mi WSW 26.5 mph - N/A   Scattered Clouds
8:30 AM 41.0 °F 31.9 °F 35.6 °F 81% 29.59 in 6.2 mi SW 19.6 mph - N/A   Partly Cloudy
9:00 AM 42.8 °F 33.8 °F 35.6 °F 76% 29.62 in 6.2 mi SW 21.9 mph - N/A   Partly Cloudy
9:30 AM 42.8 °F 33.3 °F 35.6 °F 76% 29.62 in 6.2 mi SW 24.2 mph - N/A   Partly Cloudy
10:00 AM 42.8 °F 33.1 °F 35.6 °F 76% 29.65 in 6.2 mi WSW 25.3 mph - N/A   Partly Cloudy
10:30 AM 44.6 °F 34.9 °F 35.6 °F 71% 29.65 in 6.2 mi WSW 28.8 mph 40.3 mph N/A   Scattered Clouds
11:00 AM 44.6 °F 35.5 °F 37.4 °F 76% 29.65 in 6.2 mi WSW 25.3 mph 38.0 mph N/A   Scattered Clouds
11:30 AM 46.4 °F 38.1 °F 37.4 °F 71% 29.68 in 6.2 mi WSW 24.2 mph - N/A   Scattered Clouds
12:00 PM 46 °F - 38 °F 63% 29.69 in 16 mi WSW 26.8 mph - - Rain Light Rain Showers
12:00 PM 46.4 °F 37.5 °F 37.4 °F 71% 29.68 in 6.2 mi WSW 27.6 mph - N/A   Partly Cloudy
12:30 PM 46.4 °F 37.2 °F 37.4 °F 71% 29.68 in 6.2 mi WSW 29.9 mph 43.7 mph N/A Rain Light Rain Showers
1:00 PM 46.4 °F 37.9 °F 37.4 °F 71% 29.68 in 6.2 mi WSW 25.3 mph - N/A   Mostly Cloudy
1:30 PM 48.2 °F - 37.4 °F 66% 29.68 in 6.2 mi WSW 26.5 mph 38.0 mph N/A   Mostly Cloudy
2:00 PM 44.6 °F 34.7 °F 39.2 °F 81% 29.71 in 6.2 mi WSW 29.9 mph 41.4 mph N/A Rain Light Rain Showers
2:30 PM 44.6 °F 35.9 °F 37.4 °F 76% 29.71 in 5.6 mi WSW 23.0 mph 44.9 mph N/A Rain Light Rain Showers
3:00 PM 44.6 °F 34.4 °F 37.4 °F 76% 29.68 in 6.2 mi WSW 32.2 mph 43.7 mph N/A Rain Light Rain Showers
3:30 PM 44.6 °F 34.7 °F 35.6 °F 71% 29.71 in 6.2 mi West 29.9 mph - N/A Rain Light Rain Showers
4:00 PM 44.6 °F 36.6 °F 37.4 °F 76% 29.71 in 6.2 mi WSW 19.6 mph - N/A Rain Light Rain Showers
4:30 PM 44.6 °F 36.4 °F 37.4 °F 76% 29.71 in 6.2 mi WSW 20.7 mph - N/A Rain Light Rain Showers
5:00 PM 39.2 °F 29.6 °F 37.4 °F 93% 29.74 in 6.2 mi West 19.6 mph - N/A Rain Light Rain Showers
5:30 PM 42.8 °F 36.2 °F 37.4 °F 81% 29.71 in 6.2 mi WSW 12.7 mph - N/A Rain Light Rain Showers
6:00 PM 44 °F - 36 °F 64% 29.75 in 19 mi WSW 22.4 mph - - Rain Light Rain Showers
6:00 PM 44.6 °F 35.9 °F 35.6 °F 71% 29.71 in 6.2 mi WSW 23.0 mph - N/A   Mostly Cloudy
6:30 PM 42.8 °F 34.5 °F 35.6 °F 76% 29.74 in 6.2 mi WSW 18.4 mph - N/A   Mostly Cloudy
7:00 PM 42.8 °F 35.1 °F 35.6 °F 76% 29.74 in 6.2 mi SW 16.1 mph - N/A   Mostly Cloudy
7:30 PM 42.8 °F 34.0 °F 35.6 °F 76% 29.74 in 6.2 mi SW 20.7 mph - N/A   Mostly Cloudy
8:00 PM 42.8 °F 34.0 °F 33.8 °F 70% 29.74 in 6.2 mi WSW 20.7 mph - N/A   Mostly Cloudy
8:30 PM 41.0 °F 31.9 °F 35.6 °F 81% 29.74 in 6.2 mi SW 19.6 mph - N/A   Mostly Cloudy
9:00 PM 41.0 °F 32.2 °F 35.6 °F 81% 29.71 in 6.2 mi SW 18.4 mph - N/A   Mostly Cloudy
9:30 PM 42.8 °F 33.8 °F 35.6 °F 76% 29.71 in 6.2 mi WSW 21.9 mph - N/A   Scattered Clouds
10:00 PM 41.0 °F 31.6 °F 35.6 °F 81% 29.71 in 6.2 mi SW 20.7 mph - N/A   Scattered Clouds
10:30 PM 41.0 °F 31.6 °F 35.6 °F 81% 29.68 in 6.2 mi WSW 20.7 mph - N/A   Scattered Clouds
11:00 PM 42.8 °F 34.3 °F 35.6 °F 76% 29.68 in 6.2 mi WSW 19.6 mph - N/A   Scattered Clouds
11:30 PM 41.0 °F 31.9 °F 37.4 °F 87% 29.68 in 6.2 mi WSW 19.6 mph - N/A   Scattered Clouds